• Join FlightAware (Why Join?)
  • Login
  • US Flag 
10:16AM EDT


 

Airport Tracker/Info


-or-


 

Live Flight TrackerFlight Track Log ✈ FDX584 ✈ 09-Apr-2013 ✈ KMEM - KMCI

Flight Track Log - Related Links

Times and Time Zones

All times are in EDT time to prevent confusion due to time zone crossing. See the FDX584 flight status page for this flight to view local times or setup timezone preferences in your user account.

Time Position Orientation Groundspeed Altitude Reporting Facility
EDT Latitude Longitude Course Direction KTS MPH feet Rate Location/Type
06:00PM 35.0167 -89.9667 219° Southwest 153 176 1,100  Level KMEM
06:02PM 34.9667 -90.0167 219° Southwest 243 280 3,200 1,920 Climbing KMEM
06:03PM 35.0167 -90.0833 312° West 303 349 5,600 2,580 Climbing KMEM
06:04PM 35.1167 -90.0833 360° North 314 361 8,200 2,040 Climbing KMEM
06:06PM 35.3553 -90.0669 North 370 426 12,900 1,920 Climbing Memphis Center
06:07PM 35.4700 -90.0614 North 395 455 15,000 2,100 Climbing Memphis Center
06:08PM 35.5869 -90.0533 North 408 470 17,200 1,980 Climbing Memphis Center
06:09PM 35.6975 -90.0656 355° North 413 475 19,000 1,680 Climbing Memphis Center
06:10PM 35.7936 -90.1447 326° Northwest 391 450 20,600 1,620 Climbing Memphis Center
06:11PM 35.8542 -90.2622 302° West 381 438 22,300 1,560 Climbing Memphis Center
06:12PM 35.9147 -90.3853 301° West 397 457 23,800 1,260 Climbing Memphis Center
06:13PM 35.9814 -90.5083 304° West 418 481 24,900 1,140 Climbing Memphis Center
06:14PM 36.0436 -90.6367 301° West 430 495 26,100 1,260 Climbing Memphis Center
06:15PM 36.1078 -90.7681 301° West 442 509 27,500 1,200 Climbing Memphis Center
06:16PM 36.1761 -90.8994 303° West 453 521 28,600 960 Climbing Memphis Center
06:17PM 36.2422 -91.0336 301° West 453 521 29,500 1,020 Climbing Memphis Center
06:18PM 36.3103 -91.1683 302° West 453 521 30,700 720 Climbing Memphis Center
06:19PM 36.3761 -91.3028 301° West 453 521 31,000 600 Climbing Memphis Center
06:20PM 36.4417 -91.4403 301° West 458 527 31,900 480 Climbing Memphis Center
06:21PM 36.5053 -91.5547 305° West 451 519 32,000  Climbing Memphis Center
06:23PM 36.6203 -91.7944 301° West 450 518 32,000  Level Kansas City Center
06:24PM 36.6856 -91.9253 302° West 447 514 32,000  Level Kansas City Center
06:30PM 37.0770 -92.7380 302° West 452 520 32,000  Level FlightAware
06:31PM 37.1190 -92.8270 301° West 451 519 32,000  Level FlightAware
06:32PM 37.1760 -92.9490 300° West 452 520 32,000  Level FlightAware
06:32PM 37.2250 -93.0530 301° West 451 519 32,000  Level FlightAware
06:33PM 37.2620 -93.1300 301° West 452 520 32,000  Level FlightAware
06:34PM 37.3180 -93.2510 300° West 452 520 32,000  Level FlightAware
06:35PM 37.3240 -93.2180 77° East 468 539 32,100  Climbing FlightAware
06:36PM 37.2830 -93.1750 140° Southeast 475 547 32,000 -600 Descending FlightAware
06:36PM 37.6100 -93.4750 324° Northwest 477 549 31,400 -900 Descending FlightAware
06:37PM 37.6850 -93.5170 336° Northwest 479 551 30,800 -960 Descending FlightAware
06:38PM 37.8020 -93.5820 336° Northwest 482 555 29,900 -600 Descending FlightAware
06:39PM 37.8730 -93.6220 336° Northwest 482 555 29,900 -1,080 Level FlightAware
06:39PM 37.9790 -93.6810 336° Northwest 488 562 28,400 -1,140 Descending FlightAware
06:40PM 38.0490 -93.7200 336° Northwest 488 562 28,300 -960 Descending FlightAware
06:41PM 38.1320 -93.7680 336° Northwest 491 565 27,200 -1,440 Descending FlightAware
06:41PM 38.2280 -93.8220 336° Northwest 492 566 26,400 -1,140 Descending FlightAware
06:42PM 38.3350 -93.8830 336° Northwest 453 521 25,400 -1,620 Descending FlightAware
06:43PM 38.4090 -93.9240 337° Northwest 437 503 23,900 -1,020 Descending FlightAware
06:44PM 38.4860 -93.9700 335° Northwest 437 503 23,900 -2,160 Level FlightAware
06:45PM 38.5830 -94.0240 336° Northwest 407 468 20,500 -3,240 Descending FlightAware
06:45PM 38.6510 -94.0640 335° Northwest 397 457 19,100 -1,980 Descending FlightAware
06:46PM 38.7160 -94.1190 327° Northwest 376 433 17,900 -1,860 Descending FlightAware
06:47PM 38.7740 -94.1810 320° Northwest 377 434 16,500 -1,920 Descending FlightAware
06:47PM 38.8270 -94.2370 321° Northwest 371 427 15,200 -1,920 Descending FlightAware
06:48PM 38.8860 -94.3010 320° Northwest 366 421 13,800 -1,860 Descending FlightAware
06:49PM 38.9380 -94.3570 320° Northwest 364 419 12,600 -1,200 Descending FlightAware
06:49PM 38.9890 -94.4120 320° Northwest 343 395 12,200 -300 Descending FlightAware
06:50PM 39.0440 -94.4730 319° Northwest 345 397 12,200  Level FlightAware
06:51PM 39.0930 -94.5260 320° Northwest 342 394 12,200 -240 Level FlightAware
06:52PM 39.1440 -94.5810 320° Northwest 317 365 11,900 -1,020 Descending FlightAware
06:52PM 39.1900 -94.6290 321° Northwest 322 371 10,800 -1,560 Descending FlightAware
06:53PM 39.2070 -94.6390 335° Northwest 327 376 10,500 -1,500 Descending FlightAware
06:53PM 39.2500 -94.6330 North 324 373 9,800 -1,800 Descending FlightAware
06:53PM 39.2940 -94.6210 12° North 318 366 8,900 -1,800 Descending FlightAware
06:54PM 39.3260 -94.6100 15° North 311 358 8,200 -1,860 Descending FlightAware
06:54PM 39.3660 -94.5960 15° North 304 350 7,200 -2,160 Descending FlightAware
06:55PM 39.3900 -94.5880 14° North 301 346 6,600 -2,100 Descending FlightAware
06:55PM 39.4200 -94.5780 14° North 297 342 5,800 -1,560 Descending FlightAware
06:56PM 39.4620 -94.5640 14° North 291 335 5,200 -660 Descending FlightAware
06:56PM 39.4930 -94.5570 10° North 291 335 5,200 -1,380 Level FlightAware
06:57PM 39.5167 -94.6500 10° North 219 252 3,300 -1,140 Descending Kansas City TRACON
06:58PM 39.4833 -94.6667 201° Southwest 154 177 3,000 -180 Descending Kansas City TRACON
06:59PM 39.4333 -94.6833 194° South 149 171 3,000 -300 Level Kansas City TRACON
07:00PM 39.4000 -94.7000 201° Southwest 149 171 2,500 -660 Descending Kansas City TRACON
07:01PM 39.3667 -94.7167 201° Southwest 129 148 1,700 -720 Descending Kansas City TRACON
07:02PM 39.3131 -94.7233 185° South 136 157 900 -660 Descending Kansas City Center